361
FGUS64 KORN 011833
ESPORN
EXTENDED STREAMFLOW PREDICTION
NATIONAL WEATHER SERVICE RIVER FORECAST CENTER, SLIDELL, LA
100 PM CDT WED 01 2014

   DATE   CPGM7 CIRI2 NMDM7 TPTT1 CRTM7 OSGA4 MEMT1 TRPM6 HEEA4
10-02-14   17.2  15.4   4.8   8.1   8.7   1.3   1.9  12.6   8.8
10-03-14   16.8  15.0   4.3   7.3   7.7   0.4   1.1  11.9   8.2
10-04-14   16.5  14.4   3.7   6.9   7.2  -0.4   0.1  11.2   7.5
10-05-14   16.2  13.9   3.2   6.4   6.8  -0.8  -0.3  10.3   6.7
10-06-14   16.0  13.5   2.9   6.0   6.3  -1.3  -0.7  10.0   6.2
10-07-14   17.2  13.3   2.6   5.6   6.0  -1.7  -1.2   9.5   5.9
10-08-14   19.2  14.4   3.0   5.4   5.7  -2.1  -1.5   9.2   5.4
10-09-14   20.7  15.7   4.2   6.5   6.1  -2.4  -1.8   8.9   5.2
10-10-14   20.7  16.5   5.2   7.7   7.2  -1.2  -1.4   8.6   4.9
10-11-14   19.5  16.3   5.6   8.4   8.1   0.0  -0.2   9.6   5.3
10-12-14   17.6  15.4   5.1   8.3   8.5   0.7   0.7  10.8   6.4
10-13-14   15.8  14.1   4.0   7.4   8.0   0.6   1.0  11.5   7.3
10-14-14   14.5  13.0   2.8   6.3   7.0  -0.2   0.5  11.5   7.6
10-15-14   13.7  12.6   2.1   5.3   5.9  -1.4  -0.4  10.6   7.2
10-16-14   13.1  12.3   1.8   5.0   5.3  -2.4  -1.5   9.6   6.3
10-17-14   12.6  12.1   1.6   4.8   5.1  -2.8  -2.1   8.7   5.3
10-18-14   12.2  11.9   1.5   4.6   4.9  -3.0  -2.3   8.4   4.8
10-19-14   11.9  11.8   1.3   4.5   4.8  -3.2  -2.6   8.2   4.6
10-20-14   11.8  11.7   1.2   4.3   4.6  -3.3  -2.7   8.0   4.4
10-21-14   11.7  11.6   1.2   4.3   4.6  -3.4  -2.8   8.0   4.4
10-22-14   11.4  11.5   1.1   4.2   4.5  -3.4  -2.8   7.9   4.2
10-23-14   11.1  11.5   1.0   4.2   4.4  -3.5  -2.9   7.9   4.2
10-24-14   10.8  11.4   1.0   4.2   4.4  -3.6  -3.0   7.8   4.2
10-25-14   10.5  11.3   0.9   4.1   4.3  -3.6  -3.0   7.7   4.1
10-26-14   10.3  11.2   0.8   4.0   4.3  -3.7  -3.0   7.7   4.1
10-27-14   10.1  11.2   0.8   3.9   4.2  -3.8  -3.1   7.6   4.0
10-28-14   10.1  11.1   0.7   3.9   4.1  -3.9  -3.2   7.6   4.0
10-29-14   10.2  11.0   0.7   3.9   4.1  -3.9  -3.2   7.6   4.0

   DATE   ARSA4 GEEM6 VCKM6 NTZM6 RRLL1 BTRL1 DONL1 RRVL1 NORL1
10-02-14    8.2  19.1  15.3  23.1  26.3  12.1   7.3   5.8   4.5
10-03-14    7.5  18.5  14.5  22.2  25.6  11.4   6.8   5.6   4.5
10-04-14    7.0  17.9  14.0  21.5  24.7  10.6   6.3   5.2   4.2
10-05-14    6.3  17.4  13.4  21.0  24.0   9.8   5.7   4.9   4.0
10-06-14    5.4  16.7  12.9  20.5  23.5   9.2   5.3   4.5   3.7
10-07-14    5.0  15.9  12.3  19.9  23.0   8.8   5.0   4.2   3.5
10-08-14    4.7  15.7  11.5  19.3  22.5   8.3   4.6   4.0   3.3
10-09-14    4.3  15.3  11.3  18.6  21.9   7.8   4.3   3.7   3.1
10-10-14    4.0  15.0  10.9  18.4  21.3   7.1   3.9   3.5   3.0
10-11-14    3.8  14.7  10.6  18.0  21.1   6.8   3.4   3.1   2.8
10-12-14    4.1  14.5  10.3  17.7  20.6   6.5   3.3   3.0   2.6
10-13-14    5.1  15.4  10.1  17.4  20.4   6.1   3.0   2.9   2.5
10-14-14    6.0  16.4  11.0  17.3  20.1   5.9   2.8   2.7   2.4
10-15-14    6.3  17.0  11.9  18.0  19.9   5.6   2.6   2.5   2.3
10-16-14    5.9  16.9  12.5  18.9  20.7   5.9   2.5   2.4   2.2
10-17-14    5.0  16.2  12.4  19.5  21.5   6.7   3.0   2.5   2.1
10-18-14    4.1  15.5  11.7  19.4  22.0   7.3   3.5   2.9   2.3
10-19-14    3.5  14.6  11.0  18.7  21.9   7.6   3.9   3.2   2.6
10-20-14    3.3  14.3  10.2  18.0  21.3   7.2   3.8   3.3   2.8
10-21-14    3.2  14.2   9.9  17.3  20.6   6.5   3.4   3.1   2.7
10-22-14    3.1  14.0   9.7  17.0  19.9   5.8   2.9   2.8   2.5
10-23-14    3.0  14.0   9.6  16.8  19.7   5.3   2.4   2.4   2.3
10-24-14    3.0  13.9   9.5  16.6  19.4   5.2   2.3   2.2   2.0
10-25-14    2.9  13.9   9.4  16.6  19.3   5.0   2.1   2.1   2.0
10-26-14    2.9  13.8   9.4  16.5  19.2   5.0   2.0   2.1   2.0
10-27-14    2.8  13.8   9.3  16.5  19.1   4.8   2.0   2.0   2.0
10-28-14    2.7  13.8   9.3  16.4  19.1   4.7   1.9   1.9   2.0
10-29-14    2.7  13.7   9.3  16.3  19.0   4.7   1.9   1.9   2.0

NOTE: STAGE FORECASTS ARE BASED ON FUTURE RAINFALL COVERING
THE NEXT 24 HOURS.

END ORN


$$




Weekly Mississippi River Forecast and Stage Hydrographs
  Twenty-Eight (28) Day Graphical Lower Mississippi River Forecast
- Updates every Wednesday by 4:00 PM

USA.gov is the U.S. government's official web portal to all federal, state and local government web resources and services.